This is the latest recevied weather packets stored in our database for station/object CALDNA-WX. If no packets are shown the sender has not sent any weather packets the latest 10 day(s).
| Time | Temp. | Humidity | Pressure | Rain* | Wind** | Luminosity | Snow |
|---|---|---|---|---|---|---|---|
| 1778094927 | 11.67° C | 35% | 985.9 hPa | 0 mm | - | - | - |
| 1778094046 | 11.67° C | 35% | 985.9 hPa | 0 mm | - | - | - |
| 1778093126 | 11.67° C | 36% | 985.6 hPa | 0 mm | - | - | - |
| 1778092238 | 11.67° C | 34% | 985.7 hPa | 0 mm | - | - | - |
| 1778091326 | 11.67° C | 34% | 985.7 hPa | 0 mm | - | - | - |
| 1778090452 | 11.67° C | 34% | 985.7 hPa | 0 mm | - | - | - |
| 1778089524 | 11.67° C | 38% | 985.8 hPa | 0 mm | - | - | - |
| 1778088644 | 11.67° C | 35% | 986.4 hPa | 0 mm | - | - | - |
| 1778087727 | 11.67° C | 35% | 986.5 hPa | 0 mm | - | - | - |
| 1778086851 | 11.67° C | 36% | 986.5 hPa | 0 mm | - | - | - |
| 1778085927 | 11.11° C | 40% | 985.8 hPa | 0 mm | - | - | - |
| 1778085039 | 10.56° C | 40% | 985.8 hPa | 0 mm | - | - | - |
| 1778084127 | 10.56° C | 40% | 985.8 hPa | 0 mm | - | - | - |
| 1778083251 | 10.56° C | 40% | 985.8 hPa | 0 mm | - | - | - |
| 1778082326 | 10° C | 46% | 986.3 hPa | 0 mm | - | - | - |
| 1778081439 | 9.44° C | 48% | 985.6 hPa | 0 mm | - | - | - |
| 1778080526 | 9.44° C | 48% | 985.6 hPa | 0 mm | - | - | - |
| 1778079654 | 8.89° C | 48% | 985.6 hPa | 0 mm | - | - | - |
| 1778078727 | 8.89° C | 53% | 985.8 hPa | 0 mm | - | - | - |
| 1778077844 | 8.33° C | 53% | 985.8 hPa | 0 mm | - | - | - |
| 1778076927 | 8.33° C | 53% | 985.8 hPa | 0 mm | - | - | - |
| 1778076051 | 7.78° C | 50% | 985.3 hPa | 0 mm | - | - | - |
| 1778075123 | 7.22° C | 61% | 984.8 hPa | 0 mm | - | - | - |
| 1778074243 | 6.67° C | 61% | 984.8 hPa | 0 mm | - | - | - |
| 1778073325 | 6.67° C | 61% | 984.8 hPa | 0 mm | - | - | - |
* Rain latest hour (hover to see other rain measurements)
** Current wind speed in m/s (hover to see current wind gust speed)